Location: Bun Machan
(52.1403°N, 7.3744°W)
Time: 08:42:04
(UTC+00:00)

NPP - Pass Details

Date: 14 July 2020
Orbit: 826 x 828 km, 98.7° (Epoch: 04 August)

Event Time Altitude Azimuth Distance (km) Brightness Sun altitude
Rises 02:57:34 0° 13° (NNE) 3,380 8.3 -10.0°
Reaches altitude 10° 02:59:57 10° 10° (N) 2,442 7.3 -9.8°
Maximum altitude 03:05:16 60° 292° (WNW) 945 3.9 -9.3°
Enters shadow 03:10:20 11° 214° (SW) 2,349 5.3 -8.9°
